Lid_Strength_Index
13 13 13 12 12 12 12 12 12 15 15 13 12 11 10 10 10 9 9 8 7 7 6 6 6 5 4 3 3 2 2 1 1 1 0 -0 -0 -1
13 14 14 13 13 13 13 13 13 12 14 12 12 11 11 10 10 10 9 9 8 7 7 6 5 5 5 4 4 3 3 2 2 2 1 0 0 -0
14 15 15 14 14 14 14 13 13 13 14 13 12 11 11 11 11 10 10 10 9 7 7 6 6 6 6 5 5 4 4 3 3 3 3 2 2 1
16 15 16 14 14 13 13 13 12 12 13 15 13 12 12 11 11 12 11 9 10 8 7 7 7 7 6 6 6 5 5 5 5 5 4 3 3 2
16 16 16 14 15 14 13 13 13 12 13 14 14 12 12 12 13 12 11 11 9 8 8 7 7 6 6 6 6 7 7 7 6 5 4 3 3 2
15 15 14 14 14 14 13 13 13 13 13 14 13 13 13 12 12 12 12 11 12 10 9 8 7 8 7 7 7 7 7 5 4 3 3 4 3 3
15 14 14 14 13 13 13 13 13 13 13 14 14 14 13 12 12 11 12 12 12 13 11 10 11 10 10 8 8 3 3 3 3 3 4 4 4 4
15 14 14 14 13 12 12 11 12 13 14 14 13 13 12 11 10 12 13 14 15 13 11 11 11 10 9 9 4 2 3 3 3 4 4 4 5 5
15 14 14 13 13 13 12 12 12 11 10 11 12 11 12 11 12 13 13 14 14 11 11 13 12 10 8 8 3 3 3 3 4 4 4 5 5 6
15 15 14 13 13 13 13 13 12 11 11 10 10 10 9 10 11 12 14 17 13 11 11 12 11 10 8 9 6 4 4 4 5 5 6 6 6 6
14 15 14 13 12 12 13 13 12 11 10 8 7 8 9 10 10 19 16 19 16 13 9 11 10 10 8 10 9 7 6 6 5 6 6 7 8 8
16 14 13 13 12 11 12 12 11 11 10 10 10 11 13 14 11 17 13 15 19 17 11 12 11 10 11 9 10 11 11 8 8 6 6 7 8 11
17 17 15 12 11 10 9 10 10 9 10 11 12 17 17 17 15 14 13 12 17 17 10 10 11 11 12 11 11 11 12 12 13 12 9 7 7 10
18 16 15 11 10 9 8 8 8 10 11 13 17 16 14 12 12 13 11 11 10 11 11 10 11 11 11 12 12 11 12 13 13 13 13 12 11 10
15 13 10 9 9 9 8 8 10 12 14 12 12 12 13 13 12 14 14 12 11 11 10 11 11 11 12 14 14 14 13 13 13 14 14 14 15 14
14 12 11 9 9 10 12 11 14 16 17 17 15 14 14 14 14 13 14 13 13 14 10 10 11 11 14 14 14 16 15 16 15 14 14 15 15 14
14 18 18 19 18 15 16 15 16 18 18 17 17 16 15 14 14 14 14 15 16 15 14 12 11 12 12 13 18 16 16 16 15 16 16 17 16 15
14 16 21 20 18 16 16 15 18 18 18 17 17 17 15 16 15 14 14 16 17 16 16 15 15 15 16 15 13 17 17 18 17 17 17 21 20 16
25 26 25 21 19 17 16 16 18 17 18 18 18 18 18 17 15 15 14 14 17 18 18 18 18 19 21 21 19 12 19 19 20 21 19 20 21 17
29 28 27 23 20 19 19 18 19 18 16 15 16 17 20 19 16 16 15 17 18 19 20 20 20 19 22 22 24 19 13 21 22 22 20 20 18 14
30 30 29 27 25 24 22 21 21 20 18 18 17 18 21 20 17 18 17 16 17 21 21 19 17 17 20 24 25 24 21 14 17 22 22 23 23 22
32 31 30 30 29 28 26 25 23 21 21 19 19 19 20 20 17 19 18 18 21 21 21 20 20 22 24 24 26 27 24 21 18 15 14 16 23 25
32 32 31 31 30 29 27 26 25 23 22 21 20 20 22 21 20 19 19 21 23 23 25 24 23 23 25 24 27 26 26 26 24 23 21 15 14 14